| time (UTC) | temp C | wind direction | speed KPH | gust KPH | rain 1hr cm | rain 24hr cm | rain mn cm | humidity % | barometer mb |
| 20260904122358 | 25 | 167 | 1.6 | 4.8 | 0.00 | 0.61 | 0.00 | 99 | 1015.6 |
| 20260904122135 | 25 | 167 | 1.6 | 4.8 | 0.00 | 0.61 | 0.00 | 99 | 1015.6 |
| 20260904121742 | 25 | 156 | 1.6 | 6.4 | 0.00 | 0.61 | 0.00 | 99 | 1015.6 |
| 20260904121635 | 25 | 156 | 1.6 | 6.4 | 0.00 | 0.61 | 0.00 | 99 | 1015.6 |
| 20260904120840 | 25 | 155 | 1.6 | 6.4 | 0.00 | 0.61 | 0.00 | 99 | 1015.4 |
| 20260904120636 | 25 | 155 | 1.6 | 6.4 | 0.00 | 0.61 | 0.00 | 99 | 1015.4 |
| 20260904120349 | 25 | 148 | 0.0 | 4.8 | 0.00 | 0.61 | 0.00 | 99 | 1015.4 |
| 20260904120136 | 25 | 148 | 0.0 | 4.8 | 0.00 | 0.61 | 0.00 | 99 | 1015.4 |
| 20260904114751 | 25 | 187 | 1.6 | 3.2 | 0.00 | 0.61 | 0.00 | 99 | 1015.3 |
| 20260904114636 | 25 | 187 | 1.6 | 3.2 | 0.00 | 0.61 | 0.00 | 99 | 1015.3 |
| 20260904114255 | 25 | 207 | 0.0 | 3.2 | 0.00 | 0.61 | 0.00 | 99 | 1015.3 |
| 20260904114105 | 25 | 207 | 0.0 | 3.2 | 0.00 | 0.61 | 0.00 | 99 | 1015.3 |
| 20260904113605 | 25 | 206 | 0.0 | 4.8 | 0.00 | 0.61 | 0.00 | 100 | 1015.3 |
| 20260904113034 | 25 | 200 | 0.0 | 4.8 | 0.00 | 0.61 | 0.00 | 99 | 1015.2 |
| 20260904112408 | 25 | 176 | 1.6 | 8.0 | 0.00 | 0.61 | 0.00 | 99 | 1015.2 |
| 20260904112035 | 25 | 176 | 1.6 | 8.0 | 0.00 | 0.61 | 0.00 | 99 | 1015.2 |
| 20260904111644 | 25 | 179 | 1.6 | 4.8 | 0.00 | 0.61 | 0.00 | 99 | 1015.1 |
| 20260904111535 | 25 | 179 | 1.6 | 4.8 | 0.00 | 0.61 | 0.00 | 99 | 1015.1 |
| 20260904111005 | 25 | 179 | 3.2 | 6.4 | 0.00 | 0.61 | 0.00 | 99 | 1015.0 |
| 20260904110434 | 25 | 176 | 3.2 | 6.4 | 0.00 | 0.61 | 0.00 | 99 | 1015.1 |
| 20260904110116 | 25 | 175 | 1.6 | 6.4 | 0.00 | 0.61 | 0.00 | 100 | 1014.9 |
| 20260904105934 | 25 | 175 | 1.6 | 6.4 | 0.00 | 0.61 | 0.00 | 100 | 1014.9 |
| 20260904105634 | 25 | 176 | 1.6 | 6.4 | 0.00 | 0.61 | 0.00 | 100 | 1014.9 |
| 20260904105435 | 25 | 176 | 1.6 | 6.4 | 0.00 | 0.61 | 0.00 | 100 | 1014.9 |
| 20260904104904 | 25 | 175 | 1.6 | 8.0 | 0.00 | 0.61 | 0.00 | 100 | 1014.9 |
| 20260904103306 | 25 | 184 | 0.0 | 6.4 | 0.00 | 0.61 | 0.00 | 100 | 1014.9 |
| 20260904102735 | 25 | 180 | 0.0 | 3.2 | 0.00 | 0.61 | 0.00 | 100 | 1014.9 |
| 20260904101830 | 25 | 161 | 1.6 | 6.4 | 0.00 | 0.61 | 0.00 | 100 | 1014.7 |
| 20260904101636 | 25 | 161 | 1.6 | 6.4 | 0.00 | 0.61 | 0.00 | 100 | 1014.7 |
| 20260904100645 | 25 | 177 | 0.0 | 3.2 | 0.00 | 0.61 | 0.00 | 100 | 1014.6 |
| 20260904100534 | 25 | 177 | 0.0 | 3.2 | 0.00 | 0.61 | 0.00 | 100 | 1014.6 |
| 20260904100220 | 26 | 83 | 4.8 | 12.9 | 0.00 | 0.00 | 0.00 | 100 | 1013.6 |
| 20260904100218 | 26 | 90 | 4.8 | 9.7 | 0.00 | 0.00 | 0.00 | 99 | 1013.8 |
| 20260904094504 | 24 | 178 | 0.0 | 3.2 | 0.00 | 0.61 | 0.00 | 100 | 1014.3 |
| 20260904093436 | 24 | 217 | 0.0 | 1.6 | 0.00 | 0.61 | 0.00 | 100 | 1014.4 |
| 20260904092904 | 24 | 220 | 1.6 | 3.2 | 0.00 | 0.61 | 0.00 | 100 | 1014.3 |
| 20260904092122 | 24 | 177 | 0.0 | 3.2 | 0.00 | 0.61 | 0.00 | 100 | 1014.3 |
| 20260904091905 | 24 | 177 | 0.0 | 3.2 | 0.00 | 0.61 | 0.00 | 100 | 1014.3 |
| 20260904091624 | 24 | 161 | 0.0 | 1.6 | 0.00 | 0.61 | 0.00 | 100 | 1014.3 |
| 20260904091405 | 24 | 161 | 0.0 | 1.6 | 0.00 | 0.61 | 0.00 | 100 | 1014.3 |
| 20260904091033 | 24 | 161 | 0.0 | 3.2 | 0.00 | 0.61 | 0.00 | 100 | 1014.3 |
| 20260904090835 | 24 | 161 | 0.0 | 3.2 | 0.00 | 0.61 | 0.00 | 100 | 1014.3 |
| 20260904090306 | 24 | 169 | 0.0 | 3.2 | 0.00 | 0.61 | 0.00 | 100 | 1014.3 |
| 20260904084704 | 24 | 176 | 0.0 | 1.6 | 0.00 | 0.61 | 0.00 | 100 | 1014.2 |
| 20260904083021 | 24 | 127 | 0.0 | 3.2 | 0.00 | 0.61 | 0.00 | 100 | 1014.2 |
| 20260904082636 | 24 | 127 | 0.0 | 3.2 | 0.00 | 0.61 | 0.00 | 100 | 1014.2 |
| 20260904082104 | 24 | 116 | 1.6 | 4.8 | 0.00 | 0.61 | 0.00 | 100 | 1014.3 |
| 20260904081604 | 24 | 112 | 1.6 | 4.8 | 0.00 | 0.61 | 0.00 | 100 | 1014.3 |
| 20260904081414 | 24 | 100 | 1.6 | 6.4 | 0.00 | 0.61 | 0.00 | 100 | 1014.2 |
| 20260904081105 | 24 | 100 | 1.6 | 6.4 | 0.00 | 0.61 | 0.00 | 100 | 1014.2 |
| 20260904080604 | 24 | 100 | 3.2 | 6.4 | 0.00 | 0.61 | 0.00 | 100 | 1014.4 |
| 20260904080104 | 24 | 104 | 3.2 | 6.4 | 0.00 | 0.61 | 0.00 | 100 | 1014.4 |
| 20260904075843 | 24 | 109 | 3.2 | 6.4 | 0.00 | 0.61 | 0.00 | 100 | 1014.3 |
| 20260904075605 | 24 | 109 | 3.2 | 6.4 | 0.00 | 0.61 | 0.00 | 100 | 1014.3 |
| 20260904075341 | 25 | 105 | 3.2 | 9.7 | 0.00 | 0.61 | 0.00 | 100 | 1014.4 |
| 20260904075035 | 25 | 105 | 3.2 | 9.7 | 0.00 | 0.61 | 0.00 | 100 | 1014.4 |
| 20260904074144 | 25 | 101 | 4.8 | 9.7 | 0.00 | 0.61 | 0.00 | 100 | 1014.2 |
| 20260904074005 | 25 | 101 | 4.8 | 9.7 | 0.00 | 0.61 | 0.00 | 100 | 1014.2 |
| 20260904073138 | 25 | 102 | 4.8 | 9.7 | 0.00 | 0.61 | 0.00 | 100 | 1014.2 |
| 20260904072904 | 25 | 102 | 4.8 | 9.7 | 0.00 | 0.61 | 0.00 | 100 | 1014.2 |
| 20260904072405 | 25 | 101 | 4.8 | 9.7 | 0.00 | 0.61 | 0.00 | 100 | 1014.2 |
| 20260904071905 | 25 | 102 | 4.8 | 9.7 | 0.00 | 0.61 | 0.00 | 100 | 1014.2 |
| 20260904071603 | 25 | 100 | 4.8 | 9.7 | 0.00 | 0.61 | 0.00 | 100 | 1014.2 |
| 20260904071404 | 25 | 100 | 4.8 | 9.7 | 0.00 | 0.61 | 0.00 | 100 | 1014.2 |
| 20260904071050 | 25 | 103 | 3.2 | 9.7 | 0.00 | 0.61 | 0.00 | 100 | 1014.1 |
| 20260904070835 | 25 | 103 | 3.2 | 9.7 | 0.00 | 0.61 | 0.00 | 100 | 1014.1 |
| 20260904070335 | 25 | 105 | 3.2 | 6.4 | 0.00 | 0.61 | 0.00 | 100 | 1014.1 |
| 20260904065835 | 25 | 102 | 4.8 | 6.4 | 0.00 | 0.61 | 0.00 | 100 | 1014.2 |
| 20260904064443 | 25 | 99 | 4.8 | 9.7 | 0.00 | 0.61 | 0.00 | 100 | 1014.3 |
| 20260904064235 | 25 | 99 | 4.8 | 9.7 | 0.00 | 0.61 | 0.00 | 100 | 1014.3 |
| 20260904063704 | 25 | 88 | 3.2 | 9.7 | 0.00 | 0.61 | 0.00 | 100 | 1014.3 |
| 20260904063204 | 25 | 89 | 3.2 | 9.7 | 0.00 | 0.61 | 0.00 | 100 | 1014.3 |
| 20260904062104 | 25 | 104 | 1.6 | 6.4 | 0.00 | 0.61 | 0.00 | 100 | 1014.4 |
| 20260904061535 | 25 | 152 | 1.6 | 4.8 | 0.00 | 0.61 | 0.00 | 100 | 1014.4 |
| 20260904061035 | 25 | 195 | 0.0 | 3.2 | 0.00 | 0.61 | 0.00 | 99 | 1014.4 |
| 20260904060504 | 25 | 195 | 0.0 | 1.6 | 0.00 | 0.61 | 0.00 | 100 | 1014.5 |
| 20260904055934 | 25 | 186 | 0.0 | 1.6 | 0.00 | 0.61 | 0.00 | 99 | 1014.6 |
| 20260904055434 | 25 | 174 | 0.0 | 3.2 | 0.00 | 0.61 | 0.00 | 99 | 1014.7 |
| 20260904054404 | 25 | 167 | 1.6 | 6.4 | 0.00 | 0.61 | 0.00 | 100 | 1014.7 |
| 20260904054133 | 25 | 164 | 1.6 | 4.8 | 0.00 | 0.61 | 0.00 | 100 | 1014.7 |
| 20260904053835 | 25 | 164 | 1.6 | 4.8 | 0.00 | 0.61 | 0.00 | 100 | 1014.7 |
| 20260904053334 | 25 | 168 | 1.6 | 4.8 | 0.00 | 0.61 | 0.00 | 100 | 1014.8 |
| 20260904051530 | 25 | 163 | 1.6 | 8.0 | 0.00 | 0.61 | 0.00 | 100 | 1014.9 |
| 20260904051304 | 25 | 163 | 1.6 | 8.0 | 0.00 | 0.61 | 0.00 | 100 | 1014.9 |
| 20260904050736 | 25 | 153 | 1.6 | 8.0 | 0.00 | 0.61 | 0.00 | 100 | 1014.9 |
| 20260904045735 | 25 | 139 | 0.0 | 3.2 | 0.00 | 0.61 | 0.00 | 100 | 1015.0 |
| 20260904045529 | 25 | 137 | 1.6 | 3.2 | 0.00 | 0.61 | 0.00 | 100 | 1015.0 |
| 20260904045204 | 25 | 137 | 1.6 | 3.2 | 0.00 | 0.61 | 0.00 | 100 | 1015.0 |
| 20260904043104 | 25 | 106 | 1.6 | 4.8 | 0.00 | 0.61 | 0.00 | 100 | 1015.2 |
| 20260904042034 | 25 | 110 | 1.6 | 4.8 | 0.00 | 0.61 | 0.00 | 100 | 1015.2 |
| 20260904041535 | 25 | 102 | 3.2 | 6.4 | 0.00 | 0.61 | 0.00 | 100 | 1015.1 |
| 20260904041219 | 25 | 102 | 4.8 | 9.7 | 0.00 | 0.61 | 0.00 | 100 | 1015.1 |
| 20260904041007 | 25 | 102 | 4.8 | 9.7 | 0.00 | 0.61 | 0.00 | 100 | 1015.1 |
| 20260904040806 | 25 | 107 | 3.2 | 9.7 | 0.00 | 0.61 | 0.00 | 100 | 1015.1 |
| 20260904040504 | 25 | 107 | 3.2 | 9.7 | 0.00 | 0.61 | 0.00 | 100 | 1015.1 |
| 20260904040250 | 25 | 110 | 3.2 | 6.4 | 0.00 | 0.61 | 0.00 | 100 | 1015.0 |
| 20260904040005 | 25 | 110 | 3.2 | 6.4 | 0.00 | 0.61 | 0.00 | 100 | 1015.0 |
| 20260904035715 | 25 | 107 | 4.8 | 6.4 | 0.00 | 0.61 | 0.61 | 99 | 1015.1 |
| 20260904035435 | 25 | 107 | 4.8 | 6.4 | 0.00 | 0.61 | 0.61 | 99 | 1015.1 |
| 20260904034404 | 25 | 104 | 3.2 | 6.4 | 0.00 | 0.61 | 0.61 | 99 | 1015.1 |
| 20260904034212 | 25 | 107 | 3.2 | 6.4 | 0.00 | 0.61 | 0.61 | 99 | 1015.1 |
| 20260904033905 | 25 | 107 | 3.2 | 6.4 | 0.00 | 0.61 | 0.61 | 99 | 1015.1 |
| 20260904033404 | 25 | 108 | 4.8 | 6.4 | 0.00 | 0.61 | 0.61 | 99 | 1015.1 |
| 20260904033047 | 25 | 106 | 4.8 | 9.7 | 0.00 | 0.61 | 0.61 | 99 | 1015.1 |
| 20260904032834 | 25 | 106 | 4.8 | 9.7 | 0.00 | 0.61 | 0.61 | 99 | 1015.1 |
| 20260904032334 | 25 | 107 | 6.4 | 11.3 | 0.00 | 0.61 | 0.61 | 99 | 1015.0 |
| 20260904031834 | 25 | 104 | 6.4 | 11.3 | 0.00 | 0.61 | 0.61 | 99 | 1015.0 |
| 20260904030425 | 25 | 104 | 4.8 | 11.3 | 0.00 | 0.61 | 0.61 | 99 | 1015.1 |
| 20260904030234 | 25 | 104 | 4.8 | 11.3 | 0.00 | 0.61 | 0.61 | 99 | 1015.1 |
| 20260904025704 | 25 | 99 | 4.8 | 11.3 | 0.00 | 0.61 | 0.61 | 99 | 1015.1 |
| 20260904024104 | 25 | 103 | 4.8 | 11.3 | 0.00 | 0.61 | 0.61 | 99 | 1015.0 |
| 20260904023305 | 25 | 101 | 6.4 | 12.9 | 0.00 | 0.61 | 0.61 | 99 | 1014.7 |
| 20260904023005 | 25 | 101 | 6.4 | 12.9 | 0.00 | 0.61 | 0.61 | 99 | 1014.7 |
| 20260904022715 | 25 | 101 | 4.8 | 11.3 | 0.00 | 0.61 | 0.61 | 99 | 1014.7 |
| 20260904022434 | 25 | 101 | 4.8 | 11.3 | 0.00 | 0.61 | 0.61 | 99 | 1014.7 |
| 20260904021904 | 25 | 104 | 6.4 | 11.3 | 0.00 | 0.61 | 0.61 | 99 | 1014.7 |
| 20260904021201 | 25 | 109 | 4.8 | 14.5 | 0.00 | 0.61 | 0.61 | 99 | 1014.6 |
| 20260904020837 | 25 | 109 | 4.8 | 14.5 | 0.00 | 0.61 | 0.61 | 99 | 1014.6 |
| 20260904020335 | 25 | 108 | 3.2 | 14.5 | 0.00 | 0.61 | 0.61 | 99 | 1014.7 |
| 20260904013848 | 25 | 135 | 1.6 | 4.8 | 0.00 | 0.61 | 0.61 | 99 | 1014.9 |
| 20260904013734 | 25 | 135 | 1.6 | 4.8 | 0.00 | 0.61 | 0.61 | 99 | 1014.9 |
| 20260904013234 | 25 | 156 | 1.6 | 6.4 | 0.00 | 0.61 | 0.61 | 99 | 1014.8 |
| 20260904012345 | 25 | 119 | 1.6 | 6.4 | 0.03 | 0.61 | 0.61 | 99 | 1014.8 |
| 20260904012134 | 25 | 119 | 1.6 | 6.4 | 0.03 | 0.61 | 0.61 | 99 | 1014.8 |
| 20260904011738 | 25 | 116 | 0.0 | 6.4 | 0.03 | 0.61 | 0.61 | 99 | 1014.8 |
| 20260904011604 | 25 | 116 | 0.0 | 6.4 | 0.03 | 0.61 | 0.61 | 99 | 1014.8 |
| 20260904011104 | 25 | 122 | 0.0 | 3.2 | 0.03 | 0.61 | 0.61 | 98 | 1014.8 |
| 20260904010733 | 25 | 115 | 1.6 | 9.7 | 0.03 | 0.61 | 0.61 | 99 | 1014.8 |
| 20260904010604 | 25 | 115 | 1.6 | 9.7 | 0.03 | 0.61 | 0.61 | 99 | 1014.8 |
| 20260904005711 | 25 | 101 | 6.4 | 14.5 | 0.03 | 0.61 | 0.61 | 99 | 1014.6 |
| 20260904005504 | 25 | 101 | 6.4 | 14.5 | 0.03 | 0.61 | 0.61 | 99 | 1014.6 |
| 20260904004434 | 25 | 113 | 3.2 | 9.7 | 0.05 | 0.61 | 0.61 | 99 | 1014.4 |
| 20260904003934 | 25 | 104 | 4.8 | 11.3 | 0.08 | 0.61 | 0.61 | 99 | 1014.3 |
| 20260904002904 | 25 | 107 | 6.4 | 11.3 | 0.13 | 0.61 | 0.61 | 99 | 1014.2 |
| 20260904002334 | 25 | 99 | 6.4 | 11.3 | 0.18 | 0.58 | 0.58 | 99 | 1014.3 |
| 20260904000913 | 25 | 128 | 1.6 | 9.7 | 0.36 | 0.58 | 0.58 | 99 | 1014.4 |
| 20260904000734 | 25 | 128 | 1.6 | 9.7 | 0.36 | 0.58 | 0.58 | 99 | 1014.4 |
| 20260903235734 | 25 | 107 | 4.8 | 12.9 | 0.41 | 0.58 | 0.58 | 99 | 1014.4 |
| 20260903235436 | 26 | 103 | 8.0 | 14.5 | 0.38 | 0.56 | 0.56 | 98 | 1014.3 |
| 20260903235205 | 26 | 103 | 8.0 | 14.5 | 0.38 | 0.56 | 0.56 | 98 | 1014.3 |
| 20260903234704 | 26 | 102 | 8.0 | 14.5 | 0.38 | 0.56 | 0.56 | 98 | 1014.4 |
| 20260903234205 | 26 | 102 | 8.0 | 11.3 | 0.38 | 0.56 | 0.56 | 98 | 1014.3 |
| 20260903232810 | 26 | 105 | 4.8 | 11.3 | 0.28 | 0.46 | 0.46 | 98 | 1014.3 |
| 20260903232605 | 26 | 105 | 4.8 | 11.3 | 0.28 | 0.46 | 0.46 | 98 | 1014.3 |
| 20260903232402 | 26 | 112 | 1.6 | 6.4 | 0.20 | 0.38 | 0.38 | 97 | 1014.3 |
| 20260903232104 | 26 | 112 | 1.6 | 6.4 | 0.20 | 0.38 | 0.38 | 97 | 1014.3 |
| 20260903231604 | 26 | 146 | 0.0 | 4.8 | 0.15 | 0.33 | 0.33 | 97 | 1014.3 |
| 20260903231036 | 26 | 177 | 0.0 | 3.2 | 0.08 | 0.25 | 0.25 | 96 | 1014.3 |
| 20260903225434 | 26 | 237 | 1.6 | 1.6 | 0.00 | 0.18 | 0.18 | 96 | 1014.3 |
| 20260903224334 | 26 | 230 | 1.6 | 6.4 | 0.00 | 0.18 | 0.18 | 96 | 1014.0 |
| 20260903223234 | 26 | 239 | 3.2 | 6.4 | 0.00 | 0.18 | 0.18 | 95 | 1013.8 |
| 20260903222704 | 26 | 231 | 3.2 | 8.0 | 0.00 | 0.18 | 0.18 | 94 | 1013.8 |
| 20260903222134 | 26 | 244 | 3.2 | 8.0 | 0.00 | 0.18 | 0.18 | 92 | 1013.9 |
| 20260903221634 | 27 | 256 | 3.2 | 8.0 | 0.00 | 0.18 | 0.18 | 91 | 1013.9 |
| 20260903221104 | 27 | 237 | 3.2 | 8.0 | 0.00 | 0.18 | 0.18 | 90 | 1013.9 |
| 20260903220035 | 28 | 175 | 3.2 | 11.3 | 0.00 | 0.18 | 0.18 | 89 | 1013.7 |
| 20260903214739 | 28 | 104 | 12.9 | 25.7 | 0.03 | 0.18 | 0.18 | 89 | 1013.5 |
| 20260903214504 | 28 | 104 | 12.9 | 25.7 | 0.03 | 0.18 | 0.18 | 89 | 1013.5 |
| 20260903213934 | 28 | 103 | 16.1 | 25.7 | 0.03 | 0.18 | 0.18 | 91 | 1013.3 |
| 20260903213404 | 28 | 102 | 17.7 | 27.4 | 0.03 | 0.18 | 0.18 | 90 | 1013.2 |
| 20260903212834 | 28 | 99 | 19.3 | 29.0 | 0.05 | 0.18 | 0.18 | 89 | 1013.0 |
| 20260903212335 | 29 | 100 | 19.3 | 29.0 | 0.18 | 0.18 | 0.18 | 89 | 1013.0 |
| 20260903211032 | 30 | 96 | 9.7 | 32.2 | 0.18 | 0.18 | 0.18 | 87 | 1012.9 |
| 20260903210734 | 30 | 96 | 9.7 | 32.2 | 0.18 | 0.18 | 0.18 | 87 | 1012.9 |
| 20260903210204 | 30 | 81 | 4.8 | 14.5 | 0.18 | 0.18 | 0.18 | 86 | 1012.8 |
| 20260903210030 | 30 | 64 | 3.2 | 6.4 | 0.18 | 0.18 | 0.18 | 87 | 1012.6 |
| 20260903205704 | 30 | 64 | 3.2 | 6.4 | 0.18 | 0.18 | 0.18 | 87 | 1012.6 |
| 20260903204704 | 30 | 65 | 1.6 | 4.8 | 0.18 | 0.18 | 0.18 | 87 | 1012.4 |
| 20260903204134 | 30 | 84 | 6.4 | 17.7 | 0.15 | 0.15 | 0.15 | 87 | 1012.5 |
| 20260903203634 | 30 | 91 | 12.9 | 22.5 | 0.15 | 0.15 | 0.15 | 87 | 1012.8 |
| 20260903203134 | 31 | 97 | 14.5 | 22.5 | 0.15 | 0.15 | 0.15 | 82 | 1013.0 |
| 20260903202604 | 32 | 93 | 8.0 | 19.3 | 0.08 | 0.08 | 0.08 | 85 | 1012.9 |
| 20260903201036 | 31 | 56 | 3.2 | 6.4 | 0.00 | 0.00 | 0.00 | 80 | 1012.7 |
| 20260903195434 | 31 | 58 | 3.2 | 6.4 | 0.00 | 0.00 | 0.00 | 82 | 1013.2 |
| 20260903194934 | 31 | 53 | 3.2 | 6.4 | 0.00 | 0.00 | 0.00 | 83 | 1013.2 |
| 20260903194804 | 31 | 52 | 3.2 | 6.4 | 0.00 | 0.00 | 0.00 | 82 | 1013.3 |
| 20260903194434 | 31 | 52 | 3.2 | 6.4 | 0.00 | 0.00 | 0.00 | 82 | 1013.3 |
| 20260903193934 | 31 | 54 | 3.2 | 12.9 | 0.00 | 0.00 | 0.00 | 81 | 1013.4 |
| 20260903193712 | 31 | 71 | 4.8 | 12.9 | 0.00 | 0.00 | 0.00 | 82 | 1013.5 |
| 20260903193436 | 31 | 71 | 4.8 | 12.9 | 0.00 | 0.00 | 0.00 | 82 | 1013.5 |
| 20260903192404 | 31 | 79 | 4.8 | 14.5 | 0.00 | 0.00 | 0.00 | 80 | 1013.6 |
| 20260903191404 | 31 | 77 | 4.8 | 11.3 | 0.00 | 0.00 | 0.00 | 80 | 1013.8 |
| 20260903190834 | 31 | 80 | 4.8 | 11.3 | 0.00 | 0.00 | 0.00 | 81 | 1013.9 |
| 20260903185234 | 31 | 80 | 6.4 | 16.1 | 0.00 | 0.00 | 0.00 | 81 | 1013.8 |
| 20260903184704 | 31 | 80 | 4.8 | 16.1 | 0.00 | 0.00 | 0.00 | 82 | 1013.8 |
| 20260903184134 | 31 | 59 | 3.2 | 9.7 | 0.00 | 0.00 | 0.00 | 84 | 1013.6 |
| 20260903183635 | 30 | 55 | 3.2 | 9.7 | 0.00 | 0.00 | 0.00 | 85 | 1013.7 |
| 20260903183104 | 30 | 60 | 4.8 | 8.0 | 0.00 | 0.00 | 0.00 | 83 | 1013.8 |
| 20260903182604 | 31 | 58 | 4.8 | 8.0 | 0.00 | 0.00 | 0.00 | 81 | 1013.9 |
| 20260903182035 | 31 | 71 | 4.8 | 12.9 | 0.00 | 0.00 | 0.00 | 80 | 1013.9 |
| 20260903181035 | 32 | 101 | 3.2 | 9.7 | 0.00 | 0.00 | 0.00 | 75 | 1014.0 |
| 20260903180301 | 33 | 92 | 6.4 | 11.3 | 0.00 | 0.00 | 0.00 | 73 | 1014.2 |
| 20260903180005 | 33 | 92 | 6.4 | 11.3 | 0.00 | 0.00 | 0.00 | 73 | 1014.2 |
| 20260903175837 | 32 | 89 | 6.4 | 14.5 | 0.00 | 0.00 | 0.00 | 73 | 1014.3 |
| 20260903175505 | 32 | 89 | 6.4 | 14.5 | 0.00 | 0.00 | 0.00 | 73 | 1014.3 |
| 20260903174934 | 33 | 94 | 6.4 | 14.5 | 0.00 | 0.00 | 0.00 | 73 | 1014.4 |
| 20260903174434 | 33 | 102 | 6.4 | 11.3 | 0.00 | 0.00 | 0.00 | 71 | 1014.5 |
| 20260903173934 | 33 | 102 | 4.8 | 11.3 | 0.00 | 0.00 | 0.00 | 74 | 1014.5 |
| 20260903173404 | 33 | 98 | 3.2 | 6.4 | 0.00 | 0.00 | 0.00 | 71 | 1014.5 |
| 20260903172716 | 33 | 123 | 3.2 | 9.7 | 0.00 | 0.00 | 0.00 | 74 | 1014.8 |
| 20260903172404 | 33 | 123 | 3.2 | 9.7 | 0.00 | 0.00 | 0.00 | 74 | 1014.8 |
| 20260903171641 | 32 | 106 | 3.2 | 4.8 | 0.00 | 0.00 | 0.00 | 75 | 1014.8 |
| 20260903171404 | 32 | 106 | 3.2 | 4.8 | 0.00 | 0.00 | 0.00 | 75 | 1014.8 |
| 20260903170834 | 32 | 171 | 3.2 | 9.7 | 0.00 | 0.00 | 0.00 | 73 | 1014.8 |
| 20260903164234 | 32 | 107 | 4.8 | 12.9 | 0.00 | 0.00 | 0.00 | 75 | 1015.1 |
| 20260903163704 | 32 | 108 | 4.8 | 12.9 | 0.00 | 0.00 | 0.00 | 77 | 1015.2 |
| 20260903162634 | 31 | 156 | 3.2 | 9.7 | 0.00 | 0.00 | 0.00 | 77 | 1015.3 |
| 20260903161604 | 32 | 131 | 3.2 | 11.3 | 0.00 | 0.00 | 0.00 | 76 | 1015.3 |
| 20260903161352 | 31 | 155 | 3.2 | 9.7 | 0.00 | 0.00 | 0.00 | 78 | 1015.3 |
| 20260903161035 | 31 | 155 | 3.2 | 9.7 | 0.00 | 0.00 | 0.00 | 78 | 1015.3 |
| 20260903155504 | 31 | 126 | 4.8 | 9.7 | 0.00 | 0.00 | 0.00 | 77 | 1015.4 |
| 20260903155004 | 31 | 128 | 3.2 | 9.7 | 0.00 | 0.00 | 0.00 | 79 | 1015.4 |
| 20260903154504 | 31 | 148 | 4.8 | 9.7 | 0.00 | 0.00 | 0.00 | 76 | 1015.5 |
| 20260903154342 | 32 | 115 | 3.2 | 11.3 | 0.00 | 0.00 | 0.00 | 79 | 1015.5 |
| 20260903153934 | 32 | 115 | 3.2 | 11.3 | 0.00 | 0.00 | 0.00 | 79 | 1015.5 |
| 20260903153235 | 31 | 119 | 3.2 | 9.7 | 0.00 | 0.00 | 0.00 | 80 | 1015.6 |
| 20260903152934 | 31 | 119 | 3.2 | 9.7 | 0.00 | 0.00 | 0.00 | 80 | 1015.6 |
| 20260903152434 | 30 | 130 | 3.2 | 11.3 | 0.00 | 0.00 | 0.00 | 84 | 1015.5 |
| 20260903151404 | 30 | 143 | 4.8 | 11.3 | 0.00 | 0.00 | 0.00 | 81 | 1015.5 |
| 20260903150904 | 30 | 113 | 4.8 | 11.3 | 0.00 | 0.00 | 0.00 | 81 | 1015.6 |
| 20260903145306 | 29 | 154 | 3.2 | 9.7 | 0.00 | 0.00 | 0.00 | 86 | 1015.5 |
| 20260903144734 | 28 | 131 | 3.2 | 9.7 | 0.00 | 0.00 | 0.00 | 86 | 1015.7 |
| 20260903143134 | 28 | 139 | 3.2 | 8.0 | 0.00 | 0.00 | 0.00 | 87 | 1015.6 |
| 20260903142634 | 28 | 135 | 3.2 | 9.7 | 0.00 | 0.00 | 0.00 | 89 | 1015.5 |
| 20260903142105 | 28 | 164 | 3.2 | 9.7 | 0.00 | 0.00 | 0.00 | 88 | 1015.5 |
| 20260903141604 | 28 | 120 | 4.8 | 12.9 | 0.00 | 0.00 | 0.00 | 86 | 1015.5 |
| 20260903140813 | 28 | 124 | 1.6 | 9.7 | 0.00 | 0.00 | 0.00 | 89 | 1015.4 |
| 20260903140505 | 28 | 124 | 1.6 | 9.7 | 0.00 | 0.00 | 0.00 | 89 | 1015.4 |
| 20260903135934 | 28 | 116 | 3.2 | 9.7 | 0.00 | 0.00 | 0.00 | 90 | 1015.4 |
| 20260903135434 | 28 | 104 | 4.8 | 12.9 | 0.00 | 0.00 | 0.00 | 89 | 1015.4 |
| 20260903134434 | 28 | 104 | 3.2 | 9.7 | 0.00 | 0.00 | 0.00 | 94 | 1015.4 |
| 20260903133934 | 27 | 98 | 1.6 | 4.8 | 0.00 | 0.00 | 0.00 | 94 | 1015.3 |
| 20260903132334 | 27 | 114 | 1.6 | 4.8 | 0.00 | 0.00 | 0.00 | 96 | 1015.2 |
| 20260903131804 | 27 | 111 | 3.2 | 4.8 | 0.00 | 0.00 | 0.00 | 94 | 1015.2 |
| 20260903131235 | 27 | 100 | 3.2 | 6.4 | 0.00 | 0.00 | 0.00 | 97 | 1015.3 |
| 20260903130734 | 27 | 101 | 1.6 | 6.4 | 0.00 | 0.00 | 0.00 | 96 | 1015.3 |
| 20260903130234 | 27 | 104 | 3.2 | 6.4 | 0.00 | 0.00 | 0.00 | 97 | 1015.3 |
| 20260903125946 | 27 | 101 | 4.8 | 9.7 | 0.00 | 0.00 | 0.00 | 98 | 1015.2 |
| 20260903125705 | 27 | 101 | 4.8 | 9.7 | 0.00 | 0.00 | 0.00 | 98 | 1015.2 |
| 20260903124704 | 26 | 90 | 3.2 | 4.8 | 0.00 | 0.00 | 0.00 | 97 | 1015.2 |
| 20260903123843 | 26 | 96 | 4.8 | 11.3 | 0.00 | 0.00 | 0.00 | 98 | 1015.2 |
| 20260903123634 | 26 | 96 | 4.8 | 11.3 | 0.00 | 0.00 | 0.00 | 98 | 1015.2 |
| 20260903123105 | 26 | 98 | 6.4 | 12.9 | 0.00 | 0.00 | 0.00 | 98 | 1015.1 |